Flag for China Weather past 2 weeks in Tianjin, Tianjin Municipality, China

41 °F


Feels Like: 36 °F
Forecast: 27 / 36 °F
Wind: 8 mph from Southwest

Location: Tianjin / Zhangguizhu

Current Time: Nov 30, 2015 at 1:33:53 PM

Latest Report: Nov 30, 2015 at 12:30 PM

Visibility: 1 mi

Pressure: 30.27 "Hg

Humidity: 70%

Dew point: 32 °F

Location of TianjinLocation

Historic Weather in Tianjin — Graph


Tianjin temperature yesterday

Maximum temperature yesterday: 39 °F (at 2:00 PM)
Minimum temperature yesterday: 27 °F (at 10:30 PM)
Average temperature yesterday: 33 °F

Past Weeks' High & Low Weather Summary

High54 °F (Nov 15, 11:30 AM)100% (Nov 20, 1:30 AM)30.77 "Hg (Nov 20, 1:30 AM)
Low12 °F (Nov 26, 7:00 AM)30% (Nov 16, 2:30 PM)30.09 "Hg (Nov 16, 2:00 PM)
Average31 °F75%30.41 "Hg
* Reported Nov 15 11:00 AM — Nov 30 11:30 AM, Tianjin, Weather by CustomWeather, © 2015

Note: Actual official high and low records may vary slightly from our data, if they occured in-between our weather recording intervals... More about our weather records


Tianjin weather history for previous 24 hours

Time TempWeatherWind HumidityBarometerVisibility
11:30 AM
Mon, Nov 30
41 °FHaze.6 mph66%30.30 "Hg1 mi
11:00 AM39 °FHaze.3 mph70%30.33 "Hg1 mi
10:30 AM37 °FFog.6 mph75%30.33 "Hg1 mi
10:00 AM34 °FFog.3 mph81%30.33 "Hg0 mi
9:30 AM30 °FIce fog.1 mph93%30.33 "Hg0 mi
8:30 AM27 °FIce fog.1 mph93%30.33 "Hg0 mi
8:00 AM25 °FIce fog.1 mph93%30.33 "Hg0 mi
7:30 AM23 °FIce fog.1 mph100%30.33 "Hg0 mi
7:00 AM25 °FIce fog.1 mph93%30.33 "Hg0 mi
6:30 AM25 °FIce fog.3 mph93%30.33 "Hg0 mi
6:00 AM25 °FIce fog.1 mph100%30.33 "Hg0 mi
5:30 AM25 °FIce fog.3 mph93%30.33 "Hg0 mi
5:00 AM25 °FIce fog.3 mph93%30.33 "Hg0 mi
4:30 AM25 °FIce fog.3 mph93%30.33 "Hg0 mi
4:00 AM25 °FIce fog.3 mph100%30.33 "Hg0 mi
3:30 AM25 °FIce fog.No wind100%30.33 "Hg0 mi
3:00 AM27 °FIce fog.1 mph93%30.33 "Hg0 mi
2:30 AM27 °FIce fog.1 mph93%30.36 "Hg0 mi
2:00 AM27 °FIce fog.1 mph93%30.36 "Hg1 mi
1:30 AM27 °FIce fog.1 mph93%30.36 "Hg1 mi
1:00 AM28 °FIce fog.3 mph93%30.36 "Hg1 mi
12:30 AM25 °FIce fog.1 mph100%30.36 "Hg1 mi
12:00 AM27 °FIce fog.1 mph93%30.36 "Hg1 mi
11:30 PM
Sun, Nov 29
27 °FIce fog.1 mph93%30.36 "Hg1 mi
11:00 PM27 °FIce fog.1 mph93%30.36 "Hg1 mi
10:30 PM27 °FIce fog.3 mph86%30.36 "Hg1 mi
10:00 PM28 °FIce fog.1 mph86%30.36 "Hg1 mi
9:30 PM28 °FIce fog.1 mph86%30.36 "Hg1 mi
9:00 PM32 °FIce fog.1 mph80%30.36 "Hg1 mi
8:30 PM32 °FIce fog.1 mph80%30.33 "Hg1 mi
8:00 PM34 °FFog.1 mph75%30.33 "Hg1 mi
7:30 PM34 °FFog.3 mph75%30.33 "Hg1 mi
7:00 PM36 °FFog.6 mph75%30.33 "Hg1 mi
6:30 PM36 °FFog.6 mph75%30.33 "Hg1 mi
5:30 PM36 °FHaze.3 mph75%30.30 "Hg1 mi
5:00 PM37 °FHaze.6 mph70%30.30 "Hg1 mi
4:30 PM39 °FHaze.3 mph61%30.30 "Hg1 mi
4:00 PM39 °FHaze.3 mph65%30.30 "Hg1 mi
2:30 PM39 °FHaze.3 mph65%30.27 "Hg1 mi
2:00 PM39 °FHaze.3 mph65%30.27 "Hg1 mi
1:00 PM37 °FHaze.1 mph65%30.27 "Hg1 mi
Weather by CustomWeather, © 2015

See weather overviewHow to use our weather pages